Theta_e
313 313 311 310 310 309 309 312 314 316 319 319 316 313 314 319 322 320 319 320 318 313 313 314 314 317 319 319 318 319 319 320 319 318 318 318 317 317 316 317 317 317 318 315 309 308 310 310 310 310 310 310 310 309 309 308 310 314 318 321 322 322 321 319 318 318 318 318 318 319 319 320 321 323 323 322 321 321 321 321 321 322 321 321 321 321 322
315 313 312 310 312 312 312 314 314 315 317 317 315 314 315 319 320 319 319 318 315 312 311 312 312 311 313 313 314 314 314 316 317 317 317 317 316 316 316 316 315 314 315 311 306 306 308 308 309 309 309 309 309 308 309 308 308 309 310 312 316 318 317 315 314 315 315 315 314 313 314 315 317 319 319 319 320 320 320 321 321 321 321 321 321 321 321
317 315 314 311 313 313 314 315 316 318 318 316 316 316 318 321 316 312 316 317 313 312 312 311 309 308 310 311 311 311 311 312 315 316 317 318 318 317 314 314 313 312 312 309 305 306 307 308 309 308 308 308 308 308 308 308 308 308 308 308 309 310 310 310 309 310 312 313 312 311 311 311 312 313 314 315 315 316 317 317 318 319 319 320 320 320 320
316 315 315 314 316 317 319 318 316 317 317 313 313 314 315 318 315 313 317 317 313 313 311 309 308 308 309 309 309 310 310 310 311 314 316 318 320 319 316 314 313 312 311 309 306 305 307 307 308 308 308 308 308 307 307 307 307 307 308 308 308 308 308 308 308 308 308 309 309 309 309 309 309 310 310 310 311 311 312 313 313 314 315 317 318 319 319
317 314 315 319 320 319 320 318 312 312 313 312 311 311 310 312 314 316 316 312 309 311 309 307 307 307 307 308 308 309 309 309 310 311 312 314 317 318 317 316 314 312 310 308 305 306 307 308 308 308 309 308 308 307 307 307 307 307 307 307 307 307 307 307 307 308 307 308 308 308 309 309 309 309 309 309 309 309 309 309 310 310 311 312 313 314 316
314 313 318 321 318 315 315 315 311 310 310 309 310 309 307 308 311 311 310 308 307 308 307 307 307 306 306 306 306 306 307 309 310 310 311 311 312 313 313 313 312 309 307 306 305 305 306 307 308 309 308 308 307 308 308 307 308 307 307 307 307 307 307 307 307 307 307 307 308 308 309 309 309 309 308 307 308 308 309 309 309 310 310 310 311 311 312
315 313 318 318 313 312 312 311 309 309 307 306 306 306 305 307 308 308 307 307 306 306 306 307 307 306 305 304 304 304 305 307 309 310 310 310 311 311 313 314 312 308 306 307 307 306 306 306 307 307 307 307 307 307 307 307 307 307 307 307 307 307 307 307 307 308 308 308 307 308 309 309 309 309 308 307 307 308 309 309 309 310 311 311 311 311 311
314 311 315 316 312 310 312 312 310 309 309 310 310 307 305 306 307 307 306 306 306 306 305 306 307 306 304 304 303 303 304 305 306 307 309 310 311 312 312 312 310 308 308 308 307 306 305 305 305 306 306 307 307 307 306 306 306 306 306 306 306 306 306 307 307 307 307 307 308 308 309 309 309 308 308 308 307 308 308 308 309 310 310 310 310 310 311
315 313 312 314 311 307 310 312 309 307 308 310 312 309 305 304 305 304 304 305 306 305 305 306 307 306 304 305 304 303 303 304 304 304 305 307 307 307 307 307 308 308 309 308 307 306 305 305 305 305 306 307 307 307 306 306 306 306 306 306 306 305 306 306 306 307 306 306 307 307 308 308 308 308 308 309 309 309 309 309 309 310 310 310 310 310 311
317 317 313 311 310 308 309 309 307 306 305 306 311 311 306 304 305 303 303 305 305 305 305 305 306 306 306 306 305 303 303 304 303 302 301 302 303 303 303 304 305 306 306 306 306 305 306 307 306 305 305 306 306 307 307 306 305 305 305 306 305 305 306 306 306 306 306 306 306 306 306 306 306 307 307 308 308 308 309 309 309 309 309 309 310 310 310
314 316 314 312 311 310 308 307 307 307 305 304 309 311 306 303 304 303 303 303 303 304 305 304 304 306 307 305 305 304 303 302 302 302 301 300 301 302 302 302 303 303 303 304 303 303 305 306 305 304 304 304 304 305 306 306 305 305 305 306 305 306 306 306 307 306 306 306 306 306 306 306 306 307 307 307 308 308 308 308 309 309 309 309 310 310 310
312 314 314 310 309 307 305 306 307 305 304 306 310 310 305 303 303 303 301 301 302 302 302 303 304 304 304 303 303 303 301 300 300 301 300 300 300 301 302 301 302 302 302 302 302 302 303 303 303 303 304 303 303 304 304 305 306 306 305 305 306 306 306 306 305 305 305 305 305 306 306 306 306 306 306 307 308 308 309 309 309 309 309 309 310 310 310
312 313 310 307 307 306 304 305 306 304 305 308 309 307 306 304 303 302 300 300 300 300 301 301 301 301 301 301 302 301 300 300 300 299 298 299 299 299 300 300 300 301 302 302 302 302 302 302 302 303 303 302 302 302 303 304 305 305 306 306 305 305 305 305 304 304 304 304 305 305 305 305 305 305 305 306 306 307 308 309 310 310 310 310 310 310 310
310 311 310 307 306 306 305 305 305 305 308 310 308 305 304 302 301 300 300 300 299 299 300 299 299 300 300 300 300 300 299 300 298 297 297 298 298 298 299 299 299 299 300 300 300 301 301 302 302 302 302 302 302 302 302 302 303 304 304 304 304 304 304 304 304 304 304 304 304 304 305 305 305 305 305 306 306 306 307 309 309 309 309 309 309 309 309
308 309 308 307 306 306 306 306 304 304 306 306 304 303 301 300 299 299 299 299 299 299 299 299 299 299 299 299 299 299 299 299 297 296 296 297 297 297 298 298 298 298 299 299 299 300 300 301 301 301 301 301 301 301 301 302 302 303 303 304 304 304 304 304 304 304 304 304 304 304 305 305 305 306 306 306 307 307 306 307 308 308 308 308 308 308 308
307 306 305 306 306 304 303 302 300 299 300 300 300 300 299 299 299 299 299 299 299 299 299 299 299 299 298 299 299 298 299 299 297 296 296 296 297 298 298 298 299 298 299 298 299 299 299 300 300 300 300 301 301 301 302 302 303 303 304 304 303 303 304 303 304 304 304 304 305 305 305 305 304 304 305 305 305 305 305 305 306 307 307 307 307 307 306
302 302 302 303 303 300 298 299 299 298 298 299 300 300 299 298 298 298 298 299 299 298 298 298 299 299 299 299 299 299 300 300 298 297 296 297 297 298 298 298 299 299 299 299 299 299 299 300 300 300 300 301 302 302 302 302 303 303 303 303 302 303 303 303 304 304 304 304 305 304 304 304 304 304 304 304 304 304 304 304 305 306 306 306 306 306 305
299 299 299 299 298 298 298 298 298 298 298 299 299 300 299 298 298 298 298 298 298 299 299 299 299 300 300 301 300 300 300 300 298 296 297 298 298 298 298 299 299 299 299 299 299 299 299 300 301 300 301 302 302 302 302 302 302 302 302 302 302 302 303 303 304 304 304 304 304 304 304 303 303 303 303 304 303 304 304 304 304 305 305 305 305 304 304
300 299 298 298 298 297 298 299 298 298 298 298 298 299 299 298 299 299 299 298 299 299 299 299 300 300 300 300 300 300 301 300 298 296 296 298 298 298 298 299 299 299 299 299 299 299 299 299 300 300 301 301 301 301 301 301 301 302 301 302 302 303 303 303 303 303 304 303 303 303 303 303 303 303 303 303 304 304 305 306 306 305 305 304 304 304 303
301 298 297 299 298 297 298 299 298 297 298 299 299 299 299 299 299 298 297 298 299 300 300 300 300 300 300 300 299 299 299 298 296 296 296 297 297 298 298 298 298 298 299 298 299 299 299 299 299 299 300 300 301 301 301 301 301 302 302 302 303 303 303 303 303 303 303 303 303 303 303 303 303 303 303 303 303 304 305 306 306 306 305 304 304 305 304
301 299 298 299 300 299 298 298 298 298 299 299 300 300 300 300 299 298 297 296 296 297 297 298 299 299 299 298 297 298 298 297 295 296 296 297 297 298 298 298 298 299 299 299 299 299 299 299 299 299 300 300 301 301 301 301 302 302 302 302 303 303 303 303 303 303 303 303 303 302 302 302 302 302 302 302 303 303 304 305 306 306 306 306 306 306 305
300 299 299 300 301 301 300 298 298 298 299 299 300 300 299 299 298 298 298 296 295 295 295 295 296 298 298 296 296 296 297 296 296 296 297 297 297 298 298 298 298 299 299 299 299 299 299 299 300 300 300 300 301 302 302 302 303 302 302 303 302 302 302 302 302 302 302 302 302 301 301 301 301 302 302 302 302 303 303 304 305 306 306 306 306 306 304
299 298 299 300 300 301 300 300 300 299 298 299 299 298 298 298 296 296 297 296 295 295 294 294 294 295 296 295 295 294 294 295 295 296 295 295 296 296 297 298 298 299 299 299 299 299 300 300 300 300 300 301 301 302 302 302 302 302 302 302 302 302 302 301 301 301 301 301 300 300 299 299 300 301 301 301 301 302 303 304 305 306 306 306 306 305 303
299 299 299 299 299 299 299 299 299 298 297 298 298 298 297 296 295 294 294 294 294 294 293 293 293 293 293 293 293 293 293 294 294 294 293 293 294 294 295 296 297 298 298 298 298 299 299 300 300 300 300 301 301 301 302 302 302 302 302 302 301 301 301 300 300 300 299 299 298 298 298 298 299 299 299 299 300 301 303 305 305 305 305 304 303 302 302
299 298 298 298 298 298 298 298 298 297 296 296 297 297 296 295 294 293 293 293 292 293 292 292 292 292 292 292 292 292 292 292 292 292 292 292 292 292 292 293 295 296 296 296 297 297 298 299 300 300 300 301 301 302 302 302 301 302 301 301 300 300 299 299 298 298 298 298 297 298 298 297 298 298 299 299 299 299 299 301 303 302 302 302 301 300 299
299 299 300 300 300 301 299 298 298 297 295 294 295 294 293 294 293 293 292 292 292 292 291 291 291 291 291 291 291 291 291 291 291 291 291 291 291 291 291 291 292 294 295 295 295 296 297 297 298 299 300 301 301 301 302 301 301 301 300 299 299 298 297 297 297 297 297 297 297 297 298 298 298 298 297 299 299 298 297 296 297 297 297 297 298 297 296
300 300 301 300 300 301 300 298 297 296 294 293 293 292 292 293 292 292 292 292 291 291 291 290 290 290 290 290 290 290 290 290 290 290 290 290 290 290 290 290 292 293 293 293 294 295 295 296 296 297 299 301 302 301 301 301 300 299 299 298 297 297 296 296 296 296 296 296 296 296 297 297 297 296 296 296 296 296 295 294 293 293 293 294 294 294 294
300 299 299 298 298 298 298 296 295 294 293 292 293 292 292 292 292 292 291 291 291 291 290 290 290 290 289 290 290 290 290 290 290 289 289 289 289 289 290 290 291 292 292 292 292 293 294 294 295 296 298 300 301 300 300 300 299 298 297 296 296 295 295 295 295 295 295 295 295 295 295 295 295 295 294 294 294 294 294 293 292 292 291 292 292 292 292
299 299 299 298 296 295 296 296 294 294 293 293 293 292 292 292 292 291 291 291 291 290 290 289 289 289 289 290 289 289 289 289 289 289 289 289 289 290 290 290 290 290 290 291 291 292 292 292 293 294 296 299 300 300 299 299 297 296 296 295 295 295 294 294 294 294 294 294 294 293 293 293 293 293 293 293 293 293 293 292 292 291 291 291 292 292 292
299 299 300 298 296 295 296 296 295 294 293 293 292 292 292 291 291 291 291 291 290 290 289 289 289 289 289 289 289 289 289 289 289 289 289 288 288 289 289 289 290 289 289 289 290 290 291 291 291 293 295 297 299 299 298 297 296 296 295 295 294 294 294 294 294 294 293 293 293 293 292 292 292 292 292 292 292 292 291 291 291 291 292 292 292 292 292
299 300 299 299 298 297 297 296 295 294 293 292 292 292 292 291 291 291 291 290 289 289 289 289 288 289 289 289 289 288 288 288 288 288 288 287 287 288 288 288 289 289 289 289 289 289 289 289 290 292 294 296 297 298 297 296 296 296 295 294 294 295 295 294 294 293 293 293 293 293 293 292 292 292 291 291 291 291 291 291 291 291 292 292 292 292 293
299 299 298 298 298 297 296 296 295 294 293 293 293 292 292 291 291 291 291 290 289 289 289 288 288 289 289 289 288 288 287 288 288 287 287 287 287 287 287 287 288 288 289 289 289 289 290 289 289 291 293 295 297 297 296 296 297 296 296 295 295 295 295 295 294 293 293 293 293 294 294 294 293 292 292 292 291 291 291 291 291 291 291 291 291 292 292
299 298 297 298 297 296 296 296 295 294 293 293 293 292 291 291 291 290 290 290 289 289 289 288 288 289 289 289 288 287 287 287 287 287 287 287 286 287 287 287 288 288 289 289 289 289 290 290 290 291 293 295 297 297 296 296 297 297 296 296 296 296 296 295 294 294 294 294 294 295 295 295 294 294 293 293 292 292 292 292 292 292 291 292 292 292 292
299 298 297 298 297 296 296 296 295 294 293 293 292 292 291 291 290 290 289 290 289 289 289 289 289 289 289 288 287 287 287 287 287 287 287 287 286 287 287 287 288 289 289 289 289 290 290 290 291 291 293 295 297 297 297 297 297 297 296 296 296 296 296 295 294 294 294 295 295 296 296 296 295 295 294 294 293 293 293 293 292 292 292 292 293 293 293
297 296 295 296 295 294 294 294 294 294 294 294 293 292 291 291 290 290 290 290 290 290 290 289 289 288 289 288 287 286 286 287 286 287 287 287 286 287 287 287 288 289 289 289 290 290 291 292 292 292 294 297 298 298 297 297 297 296 296 296 296 296 296 296 295 295 295 296 296 296 296 296 296 295 295 295 294 294 294 293 293 293 293 292 292 293 293
296 295 294 295 295 294 294 293 293 293 293 293 292 292 291 291 291 291 291 291 290 290 290 289 289 289 288 287 286 286 286 286 286 286 286 286 286 287 287 287 288 288 289 289 290 291 292 293 293 294 296 298 298 297 297 296 296 296 296 296 296 296 296 296 296 296 296 296 296 296 296 296 296 295 295 295 295 294 294 293 293 293 293 293 293 293 293
295 295 294 294 294 294 294 293 293 293 293 292 292 291 291 291 291 291 291 291 290 290 290 289 288 288 288 287 286 285 285 286 286 286 286 286 286 287 286 287 287 287 288 288 289 291 293 294 295 296 297 297 297 297 297 296 296 296 296 296 296 296 297 297 297 297 296 296 296 296 296 296 295 295 295 295 295 295 294 293 293 293 293 293 293 293 292
295 295 295 294 294 294 294 294 294 294 293 293 292 292 292 292 292 292 291 290 290 290 290 289 288 288 288 287 286 285 285 285 285 285 286 286 286 287 286 286 286 287 287 287 289 291 294 295 296 296 296 297 297 296 297 297 296 296 296 296 297 297 297 297 297 296 296 295 296 296 295 295 295 295 295 295 294 294 294 293 292 292 292 292 292 292 292
294 294 294 294 294 294 294 293 293 293 293 293 293 292 292 292 292 291 290 290 289 290 290 288 287 287 287 287 286 285 284 285 285 285 285 286 286 287 287 286 286 287 287 289 290 292 293 294 295 295 296 296 296 296 296 296 296 296 296 297 296 296 297 296 296 295 295 294 295 294 294 294 294 294 293 293 293 292 292 292 291 291 291 291 291 291 291
293 294 294 294 294 294 294 293 293 293 293 292 292 291 291 290 290 289 289 289 289 289 289 288 286 286 286 286 286 285 284 284 284 285 285 285 286 286 286 286 287 287 288 290 291 292 292 293 294 294 295 296 296 296 296 296 296 297 297 297 296 296 296 295 295 294 294 294 293 293 292 292 292 291 291 291 291 290 290 290 290 290 290 290 290 290 289
293 294 294 294 294 294 294 293 293 292 292 292 291 291 290 290 289 289 289 289 289 289 289 288 286 285 285 285 286 285 285 284 284 284 284 285 285 285 285 286 286 287 288 290 291 292 292 293 293 293 294 295 295 296 296 296 296 296 296 296 296 295 295 294 294 293 293 293 292 292 291 291 290 290 290 290 289 289 289 289 289 289 289 289 289 288 288
293 294 294 294 294 294 294 293 293 292 292 291 291 290 290 290 289 289 289 288 288 289 289 288 286 285 285 285 285 285 285 284 284 284 284 284 284 284 284 285 286 287 289 290 291 291 292 292 292 293 293 293 294 295 296 296 295 295 295 294 294 294 293 293 293 292 292 292 291 291 290 290 290 289 288 288 288 288 288 288 288 288 288 288 287 287 287
294 294 294 294 294 294 294 294 293 293 292 291 291 291 290 290 290 289 289 288 288 288 289 288 287 286 285 285 285 285 285 285 284 284 285 285 285 285 285 285 286 287 289 290 290 290 291 291 291 292 292 293 293 294 294 294 294 294 293 293 292 292 292 292 291 291 291 290 290 290 290 289 289 288 288 287 287 287 287 287 286 286 286 286 286 286 286
294 294 294 294 294 295 294 294 294 293 292 291 291 291 290 290 290 290 289 288 288 288 288 288 288 286 286 285 285 285 285 285 284 284 284 285 285 285 286 286 287 287 288 289 289 289 289 290 290 291 292 292 293 293 293 293 293 293 293 292 292 292 291 291 290 290 290 290 289 289 289 289 288 288 287 287 286 286 286 286 285 285 285 285 285 284 284
294 294 294 294 295 295 294 294 295 294 293 292 291 291 290 290 290 290 290 289 288 287 288 288 288 287 286 285 285 285 285 285 285 284 284 284 284 285 286 286 287 287 287 288 288 288 288 289 289 290 290 291 292 292 292 292 292 292 292 292 291 291 290 290 289 289 289 289 288 288 288 288 287 287 287 286 286 285 285 285 285 284 284 283 283 283 282
295 295 295 294 295 295 295 295 295 294 293 291 290 290 291 291 290 290 290 289 288 288 287 288 288 287 287 286 285 285 285 285 285 285 285 284 284 285 285 286 286 287 287 287 287 287 288 288 289 289 289 289 290 290 290 290 290 290 290 290 290 289 289 288 288 288 287 287 287 287 287 287 286 286 286 286 285 285 285 285 284 284 283 283 282 282 282
295 295 295 295 295 295 295 295 295 295 293 291 290 290 291 291 291 290 290 290 289 288 287 287 287 287 287 287 286 285 285 285 285 285 285 285 284 284 285 285 285 286 286 286 286 286 287 287 288 288 288 288 288 288 288 288 288 288 288 288 288 288 288 287 287 287 286 286 286 287 286 286 286 286 286 286 286 285 285 285 285 284 284 283 283 283 282
296 295 295 295 295 295 295 295 295 295 294 293 292 292 291 291 291 291 290 290 289 288 287 287 287 286 286 287 286 285 285 285 284 285 285 285 285 285 284 284 285 285 285 285 285 285 286 286 287 287 287 287 287 287 287 287 287 287 287 287 287 287 287 287 286 286 286 286 286 286 286 286 285 285 285 285 285 285 284 284 284 284 284 283 283 282 282
296 296 295 295 295 295 295 295 294 294 294 294 294 294 293 291 291 291 291 290 289 289 288 287 286 286 286 286 286 285 285 285 284 285 285 285 285 285 284 284 284 284 284 284 285 285 285 285 285 285 286 286 286 286 286 286 286 286 287 287 287 286 286 286 286 286 286 286 286 285 285 285 285 284 284 284 284 284 284 284 284 284 283 282 282 281 282
296 295 295 295 295 295 295 295 294 294 294 294 294 295 294 291 290 291 291 291 290 289 288 287 287 287 286 286 285 285 285 285 285 285 285 285 285 285 285 284 284 284 284 284 284 284 284 284 284 284 284 285 285 285 285 285 285 285 285 286 286 286 286 285 285 285 285 285 285 285 285 285 285 285 284 284 284 283 283 283 283 283 282 282 281 280 280
295 295 295 296 295 295 295 295 295 295 295 295 295 295 294 292 290 290 291 291 290 290 289 287 287 287 287 286 286 286 286 285 285 285 285 285 285 285 285 284 284 284 284 284 284 284 284 284 283 283 283 284 284 284 284 284 284 284 284 285 285 285 285 285 285 284 284 284 284 285 285 285 285 284 284 283 283 283 283 283 282 282 282 282 281 280 279
296 296 296 296 296 295 295 295 295 295 295 295 295 295 295 294 292 291 291 290 290 290 289 288 287 287 287 287 286 286 286 286 285 285 285 285 285 285 284 284 284 283 284 284 284 284 284 283 283 283 283 283 283 284 284 284 284 284 284 284 284 284 284 284 284 284 283 283 283 283 283 283 283 283 283 283 283 282 282 282 282 282 281 281 280 279 278
Wind_Speed
2 2 2 4 5 4 3 4 4 4 4 6 6 2 1 4 5 3 5 3 6 1 2 2 2 2 5 5 3 3 3 2 1 3 5 7 8 8 8 8 7 7 7 6 8 11 13 15 16 17 17 16 14 14 15 15 15 14 13 12 12 11 9 8 7 6 6 7 5 4 5 8 10 12 13 12 12 11 11 10 10 12 13 14 14 13 13
3 4 5 7 7 5 4 3 1 0 3 6 5 2 2 6 5 2 3 8 7 3 4 4 4 3 5 6 5 6 6 6 5 4 2 2 4 5 7 9 8 8 8 8 11 14 15 16 18 18 18 16 14 13 12 12 12 12 12 12 12 11 10 9 7 5 6 6 5 5 5 6 7 8 8 7 7 6 6 7 8 10 11 12 12 12 13
3 4 5 7 7 6 5 4 4 1 3 4 4 2 3 6 5 3 7 10 6 4 4 4 5 5 7 9 9 7 7 6 6 6 5 2 1 1 3 5 6 7 8 9 12 14 15 17 19 19 18 17 15 13 11 10 9 7 8 9 9 9 8 8 6 5 6 7 5 4 4 4 4 3 3 2 2 2 2 3 4 5 7 8 9 9 10
3 3 5 5 5 7 6 6 8 6 5 5 4 3 4 3 5 4 8 7 1 5 4 5 6 7 10 10 8 7 7 7 6 7 5 2 2 3 2 3 4 4 5 7 10 13 15 16 17 17 16 15 13 10 8 8 7 6 5 6 6 6 6 6 5 5 5 5 4 3 4 4 3 3 3 3 3 3 3 3 3 3 3 5 6 8 9
4 3 4 5 5 7 4 4 5 5 2 7 7 6 7 4 5 5 4 2 3 4 2 6 8 9 10 8 6 6 6 7 7 7 6 5 2 5 6 6 6 6 6 5 9 13 15 15 15 15 14 13 11 9 7 7 7 6 5 4 4 3 3 4 4 3 3 3 3 3 3 4 4 4 4 4 4 5 5 5 4 5 5 5 6 7 8
3 4 3 5 4 2 3 5 4 2 6 12 11 7 8 8 5 5 4 2 2 3 5 8 8 7 7 7 6 6 6 6 7 8 8 8 8 8 9 8 8 7 8 8 10 12 15 15 14 14 12 11 10 8 7 6 4 3 4 4 3 1 1 2 2 2 1 0 0 0 1 1 1 1 2 3 4 5 6 6 6 6 6 7 8 8 9
3 2 5 4 2 4 5 4 3 6 11 15 15 10 9 9 7 6 6 5 5 5 5 4 5 6 6 7 9 9 7 6 7 8 8 8 8 8 8 8 8 9 9 10 10 11 13 15 13 12 10 9 9 9 8 7 5 3 3 5 5 3 2 1 1 0 2 3 3 3 2 2 3 3 4 5 5 6 7 7 7 7 7 8 8 9 10
2 1 4 3 5 4 1 4 5 6 7 8 11 11 10 9 7 5 5 6 6 5 5 3 1 3 5 8 10 10 8 7 7 7 7 6 7 7 6 8 10 10 12 11 9 9 13 15 14 12 10 9 9 10 9 8 7 6 5 6 6 6 6 5 3 2 2 1 1 1 2 3 4 5 6 7 7 8 8 8 8 8 8 8 9 10 10
3 4 2 1 2 2 3 4 3 2 2 2 4 6 4 6 6 4 4 6 7 6 6 6 4 2 4 8 8 8 8 7 7 7 7 6 8 8 9 10 9 5 2 4 5 6 9 11 12 10 7 6 7 7 6 6 5 5 6 7 6 7 8 6 6 6 5 4 4 3 2 2 3 4 5 7 7 8 8 9 9 9 9 10 10 11 11
3 5 2 1 2 4 3 4 5 3 3 3 4 6 3 4 5 4 4 5 7 6 6 7 5 2 5 6 5 6 7 6 6 7 8 8 10 10 12 12 10 6 2 2 4 4 2 3 5 5 5 5 3 1 2 4 4 5 5 5 5 6 7 6 6 7 6 6 6 6 6 7 7 7 7 8 8 8 9 9 9 10 10 11 11 12 13
3 5 3 3 3 4 4 5 7 7 5 1 4 6 3 4 5 4 4 5 6 5 5 6 6 5 5 3 5 5 5 6 6 6 6 8 10 10 10 11 10 9 8 6 8 9 6 5 5 3 3 6 5 3 4 4 3 4 5 6 7 8 7 6 6 7 7 8 9 9 10 10 9 9 9 9 10 11 12 12 11 10 10 10 11 11 12
2 4 3 1 1 1 3 5 7 8 6 3 6 3 2 3 5 5 4 6 6 5 5 5 6 6 3 2 5 5 5 5 7 8 7 8 10 10 10 10 9 9 7 5 5 9 10 6 4 5 4 4 5 4 5 7 7 6 6 7 8 8 7 7 7 8 8 9 10 10 10 10 10 10 10 10 9 10 11 11 11 10 10 10 9 9 9
2 3 3 2 1 1 3 5 7 8 5 5 5 4 5 1 4 4 5 6 5 5 5 5 4 2 2 3 5 5 5 6 8 10 12 13 14 14 13 13 13 12 9 7 7 10 12 12 9 5 4 5 7 5 6 8 10 9 8 7 7 8 8 8 8 8 8 8 9 10 11 12 13 14 14 13 13 12 11 11 10 9 8 7 7 6 6
2 2 3 2 1 1 3 5 6 5 3 3 2 4 3 1 3 4 5 5 5 5 5 4 2 3 5 4 4 6 7 6 6 10 14 16 17 19 18 18 19 17 13 13 15 16 17 16 12 9 11 13 12 11 9 9 9 9 9 10 9 9 8 8 7 6 7 8 9 11 12 13 15 16 16 16 14 12 11 11 10 8 7 7 6 6 5
2 3 3 2 1 2 3 3 4 5 3 1 2 1 3 4 4 5 5 4 4 4 5 4 4 5 5 6 6 7 7 7 7 10 12 13 15 17 18 18 19 19 18 18 19 20 21 19 15 13 14 15 15 14 12 10 8 7 7 7 7 7 6 6 6 7 8 9 10 10 10 10 11 13 13 13 11 9 9 9 9 9 9 9 8 7 6
2 3 2 0 1 2 3 3 4 3 2 2 3 4 3 3 4 3 3 3 3 3 4 4 5 5 5 6 6 7 7 7 9 11 12 12 14 16 17 17 18 18 18 19 21 22 23 22 20 19 17 15 13 9 6 4 3 2 2 2 2 3 4 5 6 7 7 8 9 9 9 9 10 11 11 11 11 11 11 11 9 10 12 12 11 10 9
3 3 1 2 1 3 6 6 5 3 3 3 5 5 3 2 2 1 2 3 4 3 3 4 4 4 5 6 5 6 6 6 7 10 13 14 14 14 15 17 17 16 15 16 18 21 23 20 18 17 16 13 10 7 6 5 5 4 3 2 3 4 4 5 5 6 7 8 9 10 10 11 12 12 12 13 13 15 16 15 12 12 14 15 14 13 12
3 4 2 2 3 5 5 4 3 4 4 3 3 5 3 2 2 1 2 1 2 2 2 3 3 3 5 6 5 6 6 6 8 11 13 16 16 16 16 16 16 15 15 15 15 18 19 17 14 10 8 6 5 5 4 4 4 4 5 5 5 4 5 5 6 7 8 9 10 11 12 13 13 12 12 13 14 15 17 17 15 15 17 18 17 15 14
2 3 4 4 3 4 4 5 4 5 6 5 5 5 4 2 2 1 1 0 1 1 2 3 4 5 5 5 5 6 5 6 8 11 12 14 17 18 18 18 16 14 13 13 13 14 17 17 15 13 10 7 6 6 5 5 5 6 5 5 5 6 6 7 7 8 9 10 11 12 13 13 14 14 13 13 13 13 14 15 14 15 18 19 18 17 17
3 3 2 4 1 2 4 5 5 5 6 5 4 3 2 2 3 3 4 4 3 3 4 5 5 5 5 5 5 5 5 6 8 10 12 14 16 17 18 17 15 13 13 12 12 13 15 17 18 17 16 13 9 8 7 7 7 7 6 6 7 8 8 9 9 10 11 12 13 14 14 14 14 14 14 15 14 14 14 15 14 15 18 20 19 18 18
3 0 2 4 3 2 4 5 4 2 2 3 3 3 3 4 5 5 6 7 7 6 6 6 5 5 6 5 5 5 5 5 7 10 13 14 15 16 17 16 15 14 13 13 14 15 17 18 18 18 17 14 11 9 7 6 6 6 7 8 9 9 10 11 11 12 13 13 14 15 15 15 14 15 15 16 17 17 18 18 18 18 19 20 21 20 20
2 2 3 1 0 2 3 3 3 2 1 3 4 5 4 5 5 5 6 8 9 9 9 9 7 5 6 6 6 6 5 7 10 13 15 16 17 18 18 18 17 16 14 14 15 16 17 17 16 16 15 11 9 7 6 4 5 6 7 8 8 8 9 9 10 12 13 15 16 17 17 16 16 16 16 17 19 20 20 20 20 20 19 19 20 20 20
3 5 5 3 3 2 5 5 4 4 3 4 5 5 5 5 5 5 5 6 7 8 10 12 10 6 7 9 9 6 7 10 12 13 15 16 18 19 20 19 18 16 14 13 13 15 16 15 13 12 10 8 7 6 6 6 6 6 6 6 7 8 9 10 12 14 16 18 19 19 19 18 17 16 16 16 16 17 19 19 19 19 20 19 18 17 18
3 4 3 3 4 2 4 4 3 4 5 5 4 4 4 4 5 6 6 5 5 4 6 10 12 10 10 12 11 8 9 12 13 13 15 17 18 19 20 19 17 15 13 12 12 13 15 14 12 10 9 8 8 8 8 7 7 6 6 7 8 9 11 12 14 15 17 18 20 21 20 18 17 17 17 14 10 10 13 15 15 15 16 16 16 17 18
2 1 1 3 3 1 3 2 3 5 7 6 4 5 5 5 7 8 6 5 7 7 5 7 10 11 12 12 12 10 11 12 13 13 15 16 17 19 20 20 19 17 15 14 12 12 13 12 10 9 9 8 8 9 9 7 6 6 7 8 9 9 10 11 12 14 15 16 18 19 19 17 16 17 19 16 12 10 9 10 10 10 12 14 16 18 17
4 2 1 3 2 2 2 2 3 5 7 8 6 5 7 8 8 8 8 7 9 10 9 8 10 12 13 12 13 13 13 14 15 15 15 15 16 19 20 20 20 19 16 15 13 13 13 12 11 10 10 9 9 9 9 8 6 6 6 7 7 7 8 8 9 10 12 14 15 16 16 15 16 18 20 19 17 17 17 17 15 15 16 16 17 18 19
4 3 4 4 4 4 2 1 1 2 7 10 8 6 9 9 8 8 9 9 9 10 10 10 12 14 14 14 15 15 15 16 16 15 15 15 17 18 20 21 20 18 15 15 14 14 14 14 14 13 10 10 11 10 9 7 6 5 5 5 5 4 4 5 6 7 8 10 11 10 10 12 15 18 18 18 19 21 24 24 23 22 23 23 21 21 21
3 2 3 2 2 4 3 1 4 6 8 9 8 8 9 9 7 6 6 6 8 9 10 11 13 13 13 15 15 15 15 15 15 15 16 17 18 18 19 18 17 15 15 16 16 16 16 16 16 15 12 10 12 11 8 6 5 4 5 5 4 3 3 3 3 3 3 3 4 5 8 11 14 16 18 19 21 23 25 26 25 24 23 24 24 23 22
2 1 2 2 2 2 2 4 6 6 5 6 7 8 8 6 4 4 4 5 6 7 9 11 12 12 12 14 14 14 14 15 15 16 17 17 16 16 17 17 16 16 17 18 19 19 19 18 18 17 13 9 13 12 8 7 7 6 7 7 6 6 6 5 5 4 4 5 6 9 11 14 17 19 22 24 25 26 26 26 26 24 22 23 24 24 23
0 2 4 3 4 5 5 4 4 4 3 4 5 5 4 4 3 3 3 5 5 6 8 11 12 12 12 13 14 14 14 14 15 15 15 15 14 15 15 16 16 16 16 17 18 19 19 19 20 19 13 8 12 13 9 9 9 8 8 8 8 9 9 7 6 7 9 10 12 13 14 16 19 21 23 24 25 26 26 26 26 24 22 22 23 24 23
1 4 5 3 4 5 4 2 2 3 2 4 5 3 3 3 3 3 4 4 5 6 9 12 12 11 12 14 15 14 13 14 14 13 14 14 13 13 13 13 14 14 14 16 17 18 18 19 21 20 14 8 12 15 13 12 11 10 10 9 9 10 8 7 8 10 11 11 10 10 11 12 14 17 19 21 22 24 24 24 24 23 22 21 21 21 20
4 4 4 3 3 3 3 2 3 3 2 3 4 2 0 0 1 3 4 5 6 8 11 12 12 11 12 14 16 15 14 14 14 14 14 14 14 14 14 13 13 14 15 17 18 18 18 18 19 20 16 11 12 17 17 14 13 12 11 10 10 8 6 5 8 10 9 8 7 7 8 9 10 11 14 17 19 20 21 21 21 20 19 18 17 17 17
4 1 1 1 2 3 2 2 3 4 3 3 3 2 1 1 3 4 5 6 8 10 11 12 14 15 14 13 15 15 15 14 13 12 13 15 15 16 16 13 12 12 13 14 15 17 18 19 19 19 15 11 13 18 19 16 13 12 12 11 9 8 6 7 10 11 9 7 5 4 5 6 7 9 11 13 15 16 17 17 18 17 16 14 14 14 14
5 4 5 4 4 4 3 3 4 4 3 3 3 2 2 3 5 6 7 7 8 10 12 14 17 16 12 10 13 15 13 11 9 10 13 16 17 18 18 14 11 8 7 7 8 12 18 19 18 16 13 12 16 21 20 16 13 12 12 11 8 7 7 9 10 9 6 3 3 4 6 7 9 11 12 12 13 14 14 14 15 14 13 12 12 11 11
8 7 6 5 5 5 6 6 5 5 4 3 3 4 5 6 7 8 9 9 9 11 14 17 19 15 8 6 11 13 12 10 11 12 15 18 19 19 18 15 13 10 7 9 9 3 9 12 12 12 12 13 19 23 21 17 15 14 12 11 9 8 9 9 9 7 5 4 6 8 10 11 13 15 16 16 16 16 15 14 14 14 14 14 14 13 15
9 7 5 6 7 8 8 8 7 7 5 4 5 6 7 7 8 9 10 11 13 14 15 16 17 12 3 3 10 12 12 12 14 15 17 18 18 17 17 17 16 14 13 17 18 11 4 7 9 11 13 17 23 24 20 17 16 14 12 11 11 11 10 9 9 9 10 10 11 12 13 13 14 15 17 19 19 18 16 16 16 16 16 17 18 20 20
7 8 7 8 9 9 9 8 7 6 5 6 8 8 8 8 8 9 11 12 14 15 13 13 14 9 1 3 9 13 12 14 16 16 16 17 16 16 19 21 21 19 19 20 20 17 14 13 14 17 20 23 25 22 18 16 17 14 12 11 11 11 11 11 12 13 13 13 12 13 16 17 18 18 19 20 20 18 17 17 17 18 19 21 22 22 21
7 8 9 10 9 8 7 5 4 3 4 6 8 9 10 11 11 11 11 10 11 13 9 7 9 7 2 3 6 12 14 16 17 16 17 17 15 15 19 23 23 22 20 19 18 20 20 19 20 21 22 22 21 19 17 18 17 14 12 12 12 12 13 14 14 15 15 15 16 16 17 19 19 19 19 18 17 17 16 17 18 19 21 21 21 21 19
7 7 9 11 9 6 5 4 3 3 5 7 9 10 9 9 9 8 8 7 10 12 9 6 7 8 5 4 6 10 13 15 17 17 17 17 15 15 19 23 25 22 19 18 20 22 21 20 20 19 18 17 18 18 17 18 17 14 12 12 12 13 14 15 16 17 18 18 18 19 19 19 19 19 19 19 19 19 19 19 20 21 21 20 20 19 18
8 9 11 11 9 6 5 4 4 5 6 8 8 5 3 2 3 4 6 7 9 11 9 7 8 9 8 6 7 10 13 15 16 16 17 18 18 18 20 24 26 25 21 21 22 22 22 22 22 20 18 18 18 18 17 17 16 13 12 13 14 14 16 17 18 18 18 19 19 20 21 21 22 22 22 22 22 21 21 20 20 20 19 19 18 17 16
9 11 12 11 9 8 8 7 6 6 7 8 6 3 0 2 2 4 6 7 8 10 9 8 9 10 10 9 8 9 11 14 16 17 18 19 19 16 16 19 24 24 22 22 23 22 22 23 24 23 21 20 20 19 18 17 16 15 16 17 17 17 18 19 19 19 19 19 20 21 21 22 23 23 23 23 22 21 21 20 19 18 18 17 16 15 15
12 13 12 10 9 9 10 10 9 8 8 7 5 3 1 1 1 2 4 5 7 9 9 9 9 11 12 11 10 10 11 12 13 16 18 19 18 15 13 16 21 23 22 22 24 24 23 22 23 23 23 22 22 21 21 20 19 19 20 19 19 19 20 20 20 20 20 21 21 21 21 22 22 22 22 22 21 20 19 18 17 16 15 13 13 12 12
14 15 13 11 11 11 11 10 10 10 9 6 5 4 2 1 0 0 2 4 7 8 8 8 9 11 13 14 12 12 11 11 12 14 17 19 20 19 18 19 22 23 22 21 23 24 23 22 21 21 21 23 24 24 24 24 23 22 22 21 20 20 20 20 20 20 20 20 20 20 20 20 20 19 19 19 18 17 16 15 15 13 12 11 10 9 8
16 16 15 14 13 12 11 11 11 10 9 8 7 5 4 3 2 1 2 4 5 7 7 7 7 9 12 14 14 13 12 11 11 12 14 16 19 21 21 20 21 22 22 22 22 22 21 20 19 19 19 20 22 24 24 24 24 23 22 21 21 20 20 20 20 19 19 18 18 18 17 17 16 16 15 14 14 13 13 12 12 11 10 8 7 6 5
15 16 17 16 14 12 13 12 10 10 10 11 9 7 5 5 4 3 2 3 4 5 6 5 6 8 10 13 14 14 13 12 12 13 12 12 12 14 17 19 19 19 20 21 22 22 20 19 17 17 18 19 20 21 22 23 22 22 21 20 19 19 19 19 19 18 18 17 16 15 15 15 14 13 13 12 12 12 12 12 11 9 8 7 7 6 6
15 16 16 16 15 14 15 12 8 7 8 11 11 8 7 7 7 6 5 4 4 5 5 5 6 7 7 9 12 13 12 12 12 12 13 13 12 12 14 15 16 17 18 18 19 20 19 17 16 17 17 18 19 20 21 21 21 21 20 20 19 19 19 19 18 17 17 16 16 16 16 16 15 14 13 13 13 13 13 13 13 12 11 10 9 8 8
15 15 15 15 14 14 14 12 8 5 4 7 9 10 10 9 9 8 7 6 5 6 6 6 6 7 7 6 7 9 11 11 10 9 9 12 13 13 13 13 14 14 15 16 17 16 15 14 15 16 17 18 20 21 21 21 21 21 21 21 20 20 19 18 17 17 16 16 16 16 16 15 14 12 12 12 13 13 13 13 13 13 12 12 11 9 8
16 16 17 17 15 14 13 12 9 8 8 8 9 11 12 12 12 10 10 9 8 8 7 7 7 7 7 6 5 6 7 9 9 7 6 7 10 12 13 13 13 13 14 15 15 14 13 12 13 14 15 17 19 20 20 20 21 21 21 21 20 20 19 18 17 16 16 15 15 14 13 13 13 13 13 13 13 13 12 12 12 11 11 11 11 10 8
18 18 17 16 15 15 14 13 11 11 13 12 10 10 11 13 14 13 12 12 12 10 9 8 8 8 8 8 7 6 6 7 9 10 9 7 8 10 12 12 12 12 14 15 15 14 13 13 12 13 13 15 16 17 18 19 19 19 19 19 18 18 17 17 16 15 15 13 12 11 11 11 11 12 13 13 12 11 11 11 11 10 10 10 10 9 9
18 17 16 16 16 16 16 14 13 15 16 14 10 8 9 13 16 16 15 14 14 14 12 11 10 9 9 9 9 8 8 9 10 11 11 9 8 9 11 11 11 11 13 14 15 15 14 14 14 13 13 13 13 14 15 16 16 17 17 17 17 17 16 15 14 13 12 10 9 10 10 10 9 9 9 10 11 12 11 11 10 10 9 8 9 9 9
18 18 19 20 20 19 19 19 19 20 20 17 11 7 7 11 15 18 17 15 15 17 16 14 12 10 9 9 9 9 8 9 10 10 10 8 8 9 9 10 10 11 12 13 14 14 14 13 14 14 13 13 13 12 12 12 12 13 14 15 16 16 15 14 13 12 12 11 11 10 9 8 8 9 11 12 12 12 11 10 9 8 7 7 8 8 9
21 21 22 22 22 22 21 21 22 23 23 20 16 12 11 10 12 15 17 16 17 19 20 18 15 13 12 11 9 9 9 9 9 9 9 9 9 9 9 8 9 10 11 11 12 12 12 12 12 12 12 12 12 13 12 12 12 12 12 12 13 12 12 11 10 10 11 12 13 12 11 11 11 12 13 13 12 10 9 8 7 5 5 5 7 8 8
Wind_Direction
122 119 49 33 57 69 52 36 15 6 40 70 88 79 179 131 117 211 233 114 103 196 306 58 109 156 144 142 134 119 112 108 121 137 144 148 150 149 142 137 134 127 123 116 109 111 115 115 113 111 108 104 100 95 92 94 100 109 123 134 141 145 144 149 168 196 211 208 207 217 235 245 248 250 250 247 241 235 237 245 250 251 250 248 246 246 248
32 34 48 52 53 47 46 44 3 251 99 103 115 115 71 92 95 157 139 91 72 9 347 1 6 41 91 95 73 63 54 46 51 54 60 155 157 154 152 147 141 135 131 126 122 120 119 118 117 113 109 105 100 94 91 90 91 97 106 113 125 139 140 140 149 165 177 179 185 198 219 238 239 240 247 249 247 248 249 254 259 259 260 260 260 262 264
341 355 53 59 59 65 47 6 341 33 93 77 72 41 36 73 77 54 76 78 53 354 353 354 354 27 60 61 54 54 50 47 61 57 31 9 134 151 167 150 137 132 130 124 122 122 122 122 120 115 110 105 100 96 92 88 88 92 98 101 107 118 121 125 136 151 171 182 195 209 212 219 225 229 247 259 274 284 274 281 287 283 279 275 273 275 278
292 313 56 48 50 64 47 9 351 358 44 68 59 29 30 104 132 82 62 71 341 299 342 28 36 48 60 56 45 42 38 30 48 56 26 333 189 150 114 90 84 88 104 118 122 119 117 118 121 122 118 111 104 99 93 91 92 97 106 103 99 98 98 104 110 116 135 147 145 142 137 126 117 107 87 74 69 60 49 35 18 0 336 313 302 295 289
273 289 72 64 48 42 13 320 313 314 63 87 67 27 14 39 117 110 92 141 241 280 7 68 61 54 59 57 40 34 34 32 46 55 34 10 36 94 83 62 55 50 40 63 103 111 109 113 122 127 124 117 111 107 104 101 94 87 88 87 84 99 109 101 93 89 105 115 105 112 124 115 101 88 70 55 48 36 24 17 8 358 352 344 339 333 319
247 276 56 61 45 37 255 263 283 258 115 94 79 46 16 22 55 93 119 140 322 350 57 84 84 75 74 72 59 48 42 45 49 50 48 47 54 65 64 55 49 48 48 56 72 85 92 100 114 126 126 121 121 122 122 123 112 83 63 47 41 73 140 127 100 68 18 331 10 52 132 136 107 52 12 2 7 4 360 358 353 346 342 338 339 338 334
187 296 53 61 256 219 215 268 8 85 104 96 86 64 31 24 33 48 53 29 359 14 47 81 110 105 94 78 60 45 36 43 52 49 44 48 58 63 63 61 48 30 39 62 67 68 75 81 91 106 112 114 118 115 112 112 106 86 53 33 33 38 30 48 129 271 299 288 279 266 250 265 289 309 320 323 326 327 331 336 337 336 336 333 330 326 322
146 93 88 149 230 234 265 341 16 69 81 77 75 58 27 12 14 27 33 11 353 7 20 15 86 115 88 68 50 35 31 36 47 54 46 40 51 52 49 68 66 32 14 18 26 46 67 69 67 75 84 95 100 95 90 87 78 65 49 36 34 31 29 40 56 41 19 1 333 274 244 258 264 274 290 294 294 298 303 306 311 316 318 318 318 315 313
136 144 159 182 239 275 356 347 343 36 2 343 103 95 45 6 4 13 28 17 3 6 15 5 325 295 53 53 32 14 20 29 40 52 54 55 61 57 49 61 80 80 12 335 349 40 69 57 41 46 67 89 94 87 74 56 44 37 34 33 32 26 24 29 32 26 25 27 29 29 11 326 291 283 284 280 278 278 280 285 292 300 306 309 308 307 306
110 118 142 129 189 220 244 285 288 287 282 250 151 115 68 350 345 0 37 30 8 6 15 3 342 359 53 38 353 341 358 11 29 40 47 57 64 64 61 61 64 67 57 358 359 10 344 306 337 9 44 51 50 54 22 6 353 337 338 350 358 359 359 357 356 359 358 358 1 356 346 340 331 319 306 296 290 283 279 282 286 290 296 300 299 299 302
117 120 144 169 185 214 240 272 297 307 300 265 114 97 48 328 323 343 38 40 13 11 21 12 20 57 63 1 310 309 326 350 17 28 33 42 44 44 51 58 59 49 35 22 10 354 319 254 239 256 323 351 347 318 300 303 299 289 294 305 318 328 334 338 340 341 339 335 335 334 329 326 326 324 317 308 302 293 284 279 278 280 283 287 290 294 298
126 123 124 148 154 217 271 278 294 301 308 30 92 123 259 313 324 334 47 55 27 22 29 28 46 64 62 319 297 298 313 351 11 11 10 17 22 24 24 22 22 21 18 17 351 332 325 317 277 238 246 292 303 292 281 265 243 232 252 277 295 300 303 313 320 323 324 323 323 323 320 317 318 321 319 317 313 305 291 275 265 264 264 267 275 281 287
60 94 102 101 119 287 286 286 291 298 331 49 92 196 224 275 342 0 60 61 37 38 44 43 48 24 298 270 286 311 346 8 2 358 358 359 1 4 2 357 355 353 345 336 324 315 316 319 307 264 249 284 293 293 283 262 246 238 240 249 257 263 273 289 299 306 315 321 320 317 313 309 309 309 310 309 306 306 299 279 261 249 243 244 253 260 267
28 81 110 97 42 270 255 276 305 336 44 86 181 212 198 90 41 43 55 47 32 41 46 40 10 304 297 306 327 341 354 356 347 351 355 354 353 355 356 355 354 351 341 331 326 319 313 310 302 289 291 293 285 276 271 268 267 263 255 250 251 255 264 275 283 294 308 314 312 308 305 304 302 301 301 300 298 299 294 276 256 236 225 226 230 234 238
38 62 75 87 106 268 273 297 345 23 64 177 215 110 72 59 54 50 44 34 27 31 24 4 343 332 336 349 351 345 345 345 345 349 352 352 350 351 354 356 356 356 350 342 338 331 319 307 297 293 297 295 285 274 269 271 281 282 268 257 255 260 266 271 277 285 294 299 300 296 295 297 298 298 298 296 295 301 303 285 257 232 221 217 218 219 212
62 69 58 129 214 297 347 41 68 64 58 51 64 77 64 37 42 49 38 10 356 21 26 355 343 351 352 347 344 342 341 340 339 341 345 349 347 343 343 345 349 353 350 345 344 342 334 320 303 292 290 288 280 265 247 236 229 230 241 249 260 278 287 286 282 279 278 279 279 277 281 291 298 298 298 296 295 299 306 304 274 236 222 215 211 209 201
85 107 169 238 265 16 38 65 91 90 69 73 89 105 104 48 21 47 50 0 332 356 22 1 353 353 335 325 326 328 324 322 324 327 328 330 331 331 331 334 338 342 344 344 342 340 340 336 320 299 285 272 249 213 188 184 183 186 209 254 278 289 292 282 269 261 259 260 262 266 274 283 288 289 289 290 290 289 292 296 283 249 226 215 209 203 195
93 71 26 347 42 51 45 55 80 74 57 55 76 86 76 29 330 6 83 30 313 335 11 353 331 308 302 309 315 316 315 313 315 318 318 321 324 324 323 326 331 333 335 339 341 339 338 341 340 327 301 268 236 214 213 220 222 230 248 264 274 273 265 257 253 254 261 266 269 272 276 277 278 279 278 278 280 280 281 282 273 249 225 212 207 201 196
105 57 349 340 49 74 46 26 31 40 37 32 47 61 54 22 4 7 18 316 284 296 320 312 290 279 285 297 302 305 309 309 308 309 309 311 313 313 312 314 318 322 324 327 332 333 328 326 329 331 326 316 304 292 287 284 278 271 266 263 257 249 247 252 253 256 263 269 272 273 273 272 271 271 270 270 269 267 265 264 257 238 219 210 204 199 194
105 142 261 291 273 119 72 48 28 26 36 35 36 54 56 24 7 342 337 345 343 331 326 316 300 295 299 299 297 302 307 305 306 309 310 311 313 315 316 316 316 318 320 320 321 321 317 314 312 310 308 307 301 289 285 284 276 269 262 249 242 245 253 258 261 264 268 272 273 273 273 273 274 272 270 267 262 256 253 253 247 231 216 210 208 206 201
58 123 304 320 316 336 32 44 32 28 77 64 26 13 11 9 6 357 354 356 353 344 333 320 317 320 313 303 302 305 303 302 306 309 313 317 318 319 320 321 318 315 313 313 312 310 308 306 300 293 290 291 290 285 280 267 250 244 241 236 237 244 251 255 259 264 267 269 272 272 273 275 276 273 269 264 259 255 255 254 251 242 229 221 218 218 213
41 282 282 305 4 304 319 340 341 338 66 61 19 357 2 17 18 11 4 356 350 350 350 347 346 337 319 316 320 315 307 310 313 314 317 318 317 315 316 314 311 307 305 307 309 308 305 300 288 277 273 274 275 276 269 246 231 229 226 225 232 241 247 256 264 268 272 274 275 275 275 274 271 266 263 260 256 253 251 249 247 244 239 234 230 226 216
199 228 228 193 147 212 271 291 322 344 20 35 16 5 17 28 22 18 18 7 356 354 355 355 353 337 323 330 331 321 315 318 319 323 327 324 320 318 316 312 308 306 307 309 309 306 302 293 276 261 253 244 238 245 251 248 247 245 240 243 252 260 267 275 279 280 281 280 279 278 276 272 264 254 248 246 248 245 240 238 238 236 235 233 227 218 208
215 238 219 158 135 201 273 292 324 345 13 39 38 33 40 34 21 27 32 23 11 359 342 344 348 345 338 335 331 324 323 324 327 332 332 327 324 323 322 319 316 316 319 321 319 314 307 294 268 241 229 226 225 227 233 240 247 254 263 270 273 276 281 283 283 284 283 282 282 280 277 270 258 242 228 219 217 219 219 221 224 228 227 220 205 196 198
148 220 188 134 132 229 281 300 334 356 22 49 62 47 40 35 33 37 38 24 12 4 343 337 345 346 339 332 328 327 324 321 322 324 322 318 317 317 317 316 316 318 322 321 318 318 318 309 282 251 236 226 219 219 224 232 242 251 263 272 274 277 281 282 283 285 284 284 282 279 274 267 251 231 215 199 181 165 166 180 192 200 202 199 189 180 179
114 122 80 56 34 344 349 6 344 357 34 58 68 46 30 30 33 32 27 21 11 3 353 344 339 337 332 326 323 321 317 312 312 312 310 307 306 305 303 302 304 308 313 314 309 307 310 313 307 290 261 227 213 218 225 232 244 254 263 271 271 272 276 278 279 283 282 280 280 278 272 260 240 222 209 196 180 162 145 137 139 146 152 158 159 155 152
101 98 83 50 354 322 325 357 316 53 62 66 66 44 23 21 24 22 16 14 7 357 350 343 338 333 330 326 321 314 306 303 304 303 301 298 297 296 294 292 294 299 305 307 303 299 299 304 309 304 280 236 217 218 224 233 248 256 253 252 252 254 261 262 263 271 276 277 277 273 256 233 217 207 198 184 169 156 144 134 130 131 135 139 142 144 146
82 91 110 120 247 265 270 100 108 101 85 75 68 43 19 10 12 12 7 2 357 348 341 340 337 331 324 320 316 309 304 303 302 299 296 293 292 291 289 288 290 295 300 300 296 294 297 298 299 301 290 246 220 219 226 232 231 216 202 198 192 189 194 200 212 227 243 249 241 223 203 191 186 180 171 157 144 137 133 131 130 130 133 137 139 141 142
88 79 75 93 141 157 83 75 93 100 89 75 62 40 17 360 0 6 357 348 346 338 332 333 331 325 320 317 314 311 309 307 303 300 298 296 295 294 291 290 292 293 293 292 288 286 289 290 289 294 291 244 212 212 217 206 187 171 166 170 167 158 150 143 142 144 141 143 149 151 151 149 147 144 140 135 132 131 130 131 133 134 136 138 138 137 138
298 80 84 84 93 90 72 66 100 130 118 82 70 50 25 8 3 351 335 331 331 324 322 322 319 316 319 321 320 317 314 309 307 307 308 306 302 298 294 292 291 287 284 283 282 281 283 284 281 281 281 237 203 204 197 174 161 150 149 159 160 145 132 125 125 123 117 116 119 118 118 123 127 128 129 130 132 134 136 137 139 140 141 142 142 142 144
57 63 85 94 93 95 95 94 132 154 137 88 80 70 42 21 359 325 314 314 311 309 311 311 308 310 318 323 322 319 318 318 317 316 315 314 310 306 303 295 286 277 271 272 273 272 274 277 272 266 261 233 203 197 182 161 154 152 146 146 145 139 126 116 121 123 118 113 108 100 99 109 119 125 131 135 137 139 141 141 143 145 146 148 150 151 153
69 41 48 72 104 135 173 174 139 136 123 94 92 90 57 58 277 281 286 289 294 301 303 301 302 309 318 323 324 325 328 330 324 318 319 322 319 318 317 306 291 278 268 265 266 264 264 268 263 252 243 230 206 192 177 161 155 154 152 148 144 139 127 121 134 139 133 120 107 95 97 111 123 129 134 138 141 143 145 146 147 150 153 155 158 161 165
97 34 357 129 159 188 212 168 132 139 148 137 141 162 214 220 238 260 274 283 292 297 295 295 302 309 315 325 334 337 336 332 326 323 328 331 331 332 331 322 306 290 275 270 269 261 255 257 254 243 233 221 201 186 175 164 154 148 148 148 141 131 127 136 147 152 143 126 119 117 117 125 136 140 141 144 147 149 151 153 155 156 159 162 164 168 173
151 187 203 193 186 190 183 147 136 156 175 167 163 189 243 251 252 265 279 284 289 295 297 300 306 310 314 331 342 342 336 329 325 329 334 337 340 343 342 340 338 325 299 293 286 261 250 251 247 233 218 202 188 179 170 159 150 143 142 143 139 137 144 151 158 166 167 162 180 186 173 164 163 161 158 156 157 160 166 170 171 168 166 163 163 165 168
150 163 177 173 160 157 156 151 153 165 172 176 204 238 254 260 266 281 289 289 293 301 304 310 316 317 318 345 350 343 339 340 340 339 341 345 348 349 353 1 8 8 9 20 21 328 240 232 218 204 197 184 173 167 159 150 144 141 140 139 138 139 146 155 168 177 174 163 159 161 165 174 181 183 182 178 175 177 179 175 167 160 153 149 147 147 148
147 153 159 152 143 142 150 161 168 170 171 190 225 243 256 268 279 291 298 301 307 308 306 316 329 331 325 24 6 352 348 355 356 351 349 351 352 356 8 18 18 17 24 29 32 43 118 171 171 171 172 165 156 152 150 147 143 140 139 139 138 137 139 146 148 134 120 122 131 134 138 149 161 172 177 175 172 169 163 150 140 137 136 136 138 139 139
154 155 157 155 148 146 156 169 175 179 192 212 228 243 260 273 285 298 304 309 320 322 314 319 338 346 126 91 24 12 9 10 9 3 359 358 0 10 22 25 23 24 23 19 25 49 88 121 138 143 145 146 143 142 145 149 147 141 137 137 141 143 142 142 139 130 123 129 135 131 127 128 130 137 146 150 150 149 146 137 131 129 128 130 133 135 137
155 154 156 156 152 154 168 183 194 210 226 236 245 256 269 276 285 299 306 315 339 351 346 340 358 18 112 128 34 23 21 19 18 15 10 7 9 20 28 27 23 21 18 18 32 61 88 109 122 125 127 131 135 139 147 152 150 143 136 135 140 145 143 139 137 133 132 135 134 128 122 121 123 127 132 136 138 140 141 137 132 129 127 128 131 133 135
156 154 155 157 161 174 192 208 231 248 261 272 274 276 280 283 288 306 322 336 356 7 14 34 44 47 75 102 56 34 28 25 25 22 17 14 17 29 37 34 29 28 32 43 57 72 88 102 109 111 116 126 136 142 149 152 149 142 136 137 142 145 142 136 131 127 126 127 127 122 118 118 120 122 125 126 128 130 131 130 127 125 124 124 125 126 128
169 163 162 166 175 190 203 217 236 246 263 281 284 283 300 322 332 357 3 0 6 18 36 63 61 50 57 78 70 49 38 34 32 30 26 23 24 31 35 33 30 33 46 60 69 79 89 96 100 103 111 124 136 143 148 152 150 141 136 140 143 140 135 130 125 122 121 121 121 118 115 114 114 116 119 122 123 123 123 123 123 123 122 122 121 121 122
180 174 176 181 190 200 211 225 235 243 262 277 276 259 89 35 30 25 14 10 19 33 52 72 71 60 61 74 80 66 50 41 39 41 40 34 29 29 29 26 26 34 49 64 73 81 88 92 94 96 102 116 130 139 142 145 143 134 130 133 136 133 129 126 123 121 121 120 119 117 115 113 112 112 114 116 118 118 119 119 119 120 121 122 121 121 120
183 181 185 195 204 212 222 230 235 247 263 265 242 206 192 31 45 42 30 30 35 44 61 80 80 71 71 79 83 73 58 49 49 53 53 47 40 35 30 27 32 41 54 66 73 78 82 86 90 93 97 105 117 127 131 132 130 126 124 124 125 125 125 123 121 120 120 119 117 116 115 114 112 110 110 111 112 114 117 117 117 118 121 122 123 125 125
186 186 192 202 211 219 229 235 241 251 256 239 201 190 205 224 211 54 64 61 50 49 68 90 90 75 72 76 77 69 59 53 56 61 62 59 55 51 46 43 46 53 60 66 70 73 76 79 85 93 97 101 108 116 122 123 123 122 121 119 117 117 118 118 118 117 116 114 113 113 112 112 111 109 108 108 108 110 113 114 114 115 117 119 122 126 132
189 189 195 203 213 224 233 238 246 253 245 222 203 203 211 203 197 198 128 95 72 59 71 98 107 89 77 75 75 71 63 59 62 66 67 63 58 55 55 57 59 62 66 68 69 70 71 73 79 90 99 104 108 112 115 117 119 120 120 118 117 115 114 114 114 114 112 110 109 109 109 109 109 109 108 108 108 110 111 112 113 114 116 117 119 121 127
194 194 198 204 214 228 235 238 250 261 246 222 207 205 215 214 208 197 167 125 99 84 85 106 125 117 94 85 85 82 74 67 68 71 73 70 60 55 59 64 66 67 70 73 73 74 74 76 80 87 95 102 108 110 110 111 114 116 116 117 117 116 114 112 111 110 108 107 106 105 105 105 105 105 105 104 102 101 101 102 104 105 106 109 114 116 115
201 202 204 207 217 232 239 242 256 269 242 217 206 207 217 220 212 201 192 175 137 114 106 115 135 141 127 108 102 97 88 77 71 71 76 82 81 74 72 72 72 70 72 73 73 74 77 81 84 88 93 99 103 105 106 107 109 110 112 113 114 113 111 109 107 105 103 102 102 103 104 105 105 106 106 103 100 98 97 95 94 92 91 94 100 105 108
205 205 210 217 225 233 239 242 252 268 244 217 214 219 220 214 212 214 212 197 169 144 128 119 128 147 154 138 117 108 104 98 88 77 78 86 88 85 81 80 78 76 75 73 71 72 76 80 85 91 97 101 102 102 103 105 106 108 109 109 109 109 107 105 103 101 103 104 105 105 104 102 101 105 112 114 111 106 102 99 95 92 89 88 90 95 101
206 208 215 224 229 231 232 234 244 261 264 253 248 245 233 218 214 219 217 200 180 165 150 133 125 136 152 153 133 112 109 108 104 98 97 99 96 90 85 83 82 82 82 79 76 75 78 83 89 94 100 103 104 103 103 103 104 106 108 109 109 108 107 105 103 104 105 107 108 107 105 101 98 100 106 112 113 109 104 101 99 94 88 84 84 88 94
208 210 216 222 224 225 226 228 238 252 257 259 266 270 252 227 217 219 217 203 187 177 169 156 141 132 134 141 139 123 110 110 112 111 109 110 106 98 91 88 88 89 88 87 85 83 82 83 89 95 100 102 102 102 103 103 103 105 107 109 110 109 107 106 106 106 107 109 110 110 112 114 110 104 102 105 109 110 110 108 105 101 95 87 79 76 79
208 208 213 219 221 219 221 226 236 248 253 256 267 282 263 231 217 217 218 208 194 186 182 173 160 146 136 134 136 132 122 118 118 117 112 112 116 112 101 94 94 97 96 95 94 92 89 86 86 90 96 99 99 100 101 102 101 101 104 108 111 112 112 111 110 108 108 111 115 119 123 126 120 111 108 112 115 115 116 115 111 107 100 87 74 69 73
207 206 210 219 223 224 225 228 234 243 252 257 261 268 259 237 225 225 227 218 200 189 184 178 172 167 158 147 145 146 139 129 125 126 125 125 128 126 113 100 97 104 108 105 101 98 97 95 91 90 91 93 94 97 101 101 100 100 103 107 111 113 115 116 114 108 102 102 108 115 121 123 119 115 119 124 125 120 116 115 112 107 96 82 70 66 69
212 212 215 219 224 228 231 233 235 240 247 251 251 247 247 248 245 242 236 223 203 191 187 183 181 181 178 169 161 161 159 149 140 139 141 141 139 136 129 116 106 106 112 116 114 109 105 102 99 97 95 92 91 94 100 105 106 106 107 109 112 113 115 116 117 111 104 102 104 107 109 113 116 118 120 122 122 117 111 109 108 105 95 82 74 71 71